Location: Be Tobo
(6.6442°N, 10.6239°W)
Time: 00:53:25
(UTC+00:00)

Okean 2 Rocket - Pass Details

Date: 18 September 2020
Orbit: 616 x 642 km, 82.5° (Epoch: 21 October)

Event Time Altitude Azimuth Distance (km) Brightness Sun altitude
Rises 19:29:08 0° 171° (S) 2,941 6.4 -12.9°
Reaches altitude 10° 19:31:28 10° 164° (SSE) 2,032 5.5 -13.5°
Maximum altitude 19:35:44 42° 93° (E) 910 3.4 -14.6°
Drops below altitude 10° 19:39:59 10° 22° (NNE) 2,024 5.5 -15.6°
Sets 19:42:18 0° 16° (NNE) 2,929 6.4 -16.2°
